Home   Weather   Sunnyvale   Past weeks

Flag for USA Past Weather in Sunnyvale, California, USA — Yesterday and Last 2 Weeks

Now
41 °F

Clear.


Feels Like: 41 °F
Forecast: 45 / 62 °F
Wind: No wind

Location: Moffett Field

Current Time: Dec 4, 2016 at 6:28:23 am

Latest Report: Dec 4, 2016 at 5:56 am


Visibility: 10 mi

Pressure: 30.18 "Hg

Humidity: 86%

Dew Point: 37 °F

Location of SunnyvaleLocation

Past Weather in Sunnyvale — Graph

°F

Sunnyvale Temperature Yesterday

Maximum temperature yesterday: 63 °F (at 12:56 pm)
Minimum temperature yesterday: 42 °F (at 2:56 am)
Average temperature yesterday: 52 °F

High & Low Weather Summary for the Past Weeks

 TemperatureHumidityPressure
High63 °F (Nov 20, 10:56 am)96% (Nov 24, 7:56 am)30.39 "Hg (Nov 24, 7:56 am)
Low40 °F (Nov 24, 5:56 am)25% (Dec 2, 1:56 pm)29.85 "Hg (Nov 26, 3:56 am)
Average52 °F71%30.11 "Hg
* Reported Nov 19 4:56 am — Dec 4 4:56 am, Sunnyvale, Weather by CustomWeather, © 2016

Note: Actual official high and low records may vary slightly from our data, if they occured in-between our weather recording intervals... More about our weather records

Advertising

Sunnyvale Weather History for the Previous 24 Hours

Scroll right to see more
 ConditionsComfort  
Time TempWeatherWind HumidityBarometerVisibility
4:56 am
Sun, Dec 4
41 °FClear.No wind86%30.18 "Hg10 mi
3:56 am43 °FClear.No wind86%30.18 "Hg10 mi
2:56 am43 °FClear.No wind82%30.19 "Hg10 mi
1:56 am45 °FClear.No wind80%30.19 "Hg10 mi
12:56 am46 °FClear.No wind77%30.20 "Hg10 mi
11:56 pm
Sat, Dec 3
47 °FClear.No wind77%30.20 "Hg10 mi
10:56 pm49 °FClear.No wind74%30.20 "Hg10 mi
9:56 pm48 °FClear.5 mph77%30.19 "Hg10 mi
8:56 pm51 °FClear.3 mph74%30.20 "Hg10 mi
7:56 pm49 °FClear.3 mph84%30.20 "Hg10 mi
6:56 pm54 °FClear.3 mph77%30.19 "Hg10 mi
5:56 pm54 °FClear.No wind72%30.19 "Hg10 mi
4:56 pm57 °FClear.6 mph53%30.19 "Hg10 mi
3:56 pm60 °FSunny.6 mph42%30.19 "Hg10 mi
2:56 pm62 °FSunny.7 mph38%30.20 "Hg10 mi
1:56 pm62 °FSunny.9 mph43%30.21 "Hg10 mi
12:56 pm63 °FSunny.5 mph35%30.22 "Hg10 mi
11:56 am61 °FSunny.7 mph48%30.26 "Hg10 mi
10:56 am59 °FSunny.5 mph46%30.28 "Hg10 mi
9:56 am55 °FSunny.6 mph57%30.30 "Hg10 mi
8:56 am55 °FSunny.No wind47%30.28 "Hg10 mi
7:56 am48 °FSunny.No wind59%30.28 "Hg10 mi
6:56 am45 °FClear.3 mph65%30.28 "Hg10 mi
Weather by CustomWeather, © 2016

See weather overviewHow to use our weather pages